Location: Arbon
(43.0005°N, 0.7472°E)
Time: 16:44:14
(UTC+00:00)

SL-16 R/B - Pass Details

Date: 07 August 2020
Orbit: 985 x 1007 km, 99.5° (Epoch: 23 September)

Event Time Altitude Azimuth Distance (km) Brightness Sun altitude
Exits shadow 00:28:37 21° 101° (E) 2,079 4.1 -30.4°
Maximum altitude 00:31:20 29° 62° (ENE) 1,749 4.1 -30.3°
Drops below altitude 10° 00:36:35 10° 5° (N) 2,790 5.8 -30.2°
Sets 00:39:22 0° 355° (N) 3,741 6.6 -30.1°
